CW9197 Juva FI current weather conditions

sailwx.info

Wind from 234 at 6 knots gusting 13

Air temperature 1.1° C
Dewpoint 1.1° C

Last reported at 2017-Feb-19 22:45 UTC.
Time now 2017-Feb-19 23:36 UTC

Location: N 61°53' E 027°53'.
View on Google Maps.

See reports from other nearby stations

  
Tides and Currents Weather Stations Pressure Air Temp Water Temp Dewpoint Dewpoint Depression Visibility Wind Speed Wind Dir Waves Ship Positions
date/time (UTC)wind fromknots sea level pressurealtimeterstation pressurevisibilityair tempwater tempwave heightnotes
2017-Feb-19 22:45 234 6 gusting 13 1.1
2017-Feb-19 22:35 233 5 gusting 10 1.1
2017-Feb-19 22:25 237 6 gusting 12 1.1
2017-Feb-19 22:15 232 6 gusting 14 1.1
2017-Feb-19 22:05 226 6 gusting 12 1.1
2017-Feb-19 21:55 231 6 gusting 13 1.1
2017-Feb-19 21:45 231 7 gusting 12 1.1
2017-Feb-19 21:35 227 8 gusting 13 1.1
2017-Feb-19 21:25 225 8 gusting 12 1.1
2017-Feb-19 21:15 228 8 gusting 13 1.1
2017-Feb-19 21:05 228 8 gusting 17 1.1
2017-Feb-19 20:55 228 8 gusting 15 1.1
2017-Feb-19 20:45 223 8 gusting 13 1.1
2017-Feb-19 20:35 227 9 gusting 13 1.1
2017-Feb-19 20:25 227 8 gusting 16 1.1
2017-Feb-19 20:15 226 7 gusting 15 1.1
2017-Feb-19 20:05 228 7 gusting 13 1.1
2017-Feb-19 19:55 230 7 gusting 12 1.1
2017-Feb-19 19:45 228 7 gusting 13 1.1
2017-Feb-19 19:35 227 6 gusting 11 1.1
2017-Feb-19 19:25 225 6 gusting 10 1.1
2017-Feb-19 19:15 227 6 gusting 10 1.1
2017-Feb-19 19:05 227 6 gusting 10 1.1
2017-Feb-19 18:55 230 5 gusting 9 1.1
2017-Feb-19 18:45 225 6 gusting 9 1.1
2017-Feb-19 18:35 227 5 gusting 7 0.6
2017-Feb-19 18:25 226 5 gusting 8 0.6
2017-Feb-19 18:15 225 6 gusting 10 0.6
2017-Feb-19 18:05 227 5 gusting 7 0.6
2017-Feb-19 17:55 228 5 gusting 7 0.6
2017-Feb-19 17:45 228 5 gusting 9 0.6
2017-Feb-19 17:35 226 5 gusting 8 0.6
2017-Feb-19 17:25 226 5 gusting 7 0.6
2017-Feb-19 17:15 225 5 gusting 8 0.6
2017-Feb-19 17:05 225 4 gusting 8 0.6
2017-Feb-19 16:55 229 5 gusting 8 -0.0
2017-Feb-19 16:45 228 4 gusting 8 -0.0
2017-Feb-19 16:35 228 4 gusting 6 -0.0
2017-Feb-19 16:25 225 4 gusting 6 -0.0
2017-Feb-19 16:15 223 4 gusting 8 -0.0
2017-Feb-19 16:05 224 3 gusting 6 -0.0
2017-Feb-19 15:55 225 3 gusting 6 -0.0
2017-Feb-19 15:45 222 3 gusting 6 -0.0
2017-Feb-19 15:35 222 2 gusting 5 -0.0
2017-Feb-19 15:25 225 2 gusting 5 -0.0
2017-Feb-19 15:15 226 2 gusting 5 -0.0
2017-Feb-19 15:05 230 2 gusting 4 -0.0
2017-Feb-19 14:55 221 3 gusting 5 -0.0
2017-Feb-19 14:45 224 3 gusting 5 -0.0
2017-Feb-19 14:35 219 3 gusting 5 -0.0
2017-Feb-19 14:25 218 2 gusting 4 -0.0
2017-Feb-19 14:15 219 2 gusting 4 -0.0
2017-Feb-19 14:05 223 2 gusting 4 -0.0
2017-Feb-19 13:55 220 2 gusting 4 -0.0
2017-Feb-19 13:45 220 2 gusting 4 -0.0
2017-Feb-19 13:35 225 2 gusting 5 -0.0
2017-Feb-19 13:25 221 2 gusting 3 -0.0
2017-Feb-19 13:15 225 -0.0
2017-Feb-19 13:05 -0.0
2017-Feb-19 12:55 223 3 gusting 5 -0.0
2017-Feb-19 12:45 222 3 gusting 4 -0.0
2017-Feb-19 12:35 223 3 gusting 4 -0.0
2017-Feb-19 12:25 224 2 gusting 4 -0.0
2017-Feb-19 12:15 221 2 gusting 4 -0.0
2017-Feb-19 12:05 223 2 gusting 4 -0.0
2017-Feb-19 11:55 219 2 gusting 3 -0.0
2017-Feb-19 11:45 221 2 gusting 4 -0.0
2017-Feb-19 11:35 220 2 gusting 3 -0.0
2017-Feb-19 11:25 218 2 gusting 3 -0.0
2017-Feb-19 11:15 222 1 gusting 2 -0.0
2017-Feb-19 11:05 221 1 gusting 3 -0.0
2017-Feb-19 10:55 219 2 gusting 4 -0.0
2017-Feb-19 10:45 223 1 gusting 3 -0.0
2017-Feb-19 10:35 221 2 gusting 3 -0.0
2017-Feb-19 10:25 220 2 gusting 3 -0.0
2017-Feb-19 10:15 221 2 gusting 5 -0.0
2017-Feb-19 10:05 219 2 gusting 4 -0.0
2017-Feb-19 09:55 222 2 gusting 5 -0.0
2017-Feb-19 09:45 222 2 gusting 4 -0.0
2017-Feb-19 09:35 219 2 gusting 4 -0.0
2017-Feb-19 09:25 217 -0.0
2017-Feb-19 09:15 219 2 gusting 4 -0.0
2017-Feb-19 09:05 218 3 gusting 5 -0.0
2017-Feb-19 08:55 220 3 gusting 4 -0.0
2017-Feb-19 08:45 217 3 gusting 5 -0.0
2017-Feb-19 08:35 218 3 gusting 6 -0.0
2017-Feb-19 08:25 218 3 gusting 5 -0.0
2017-Feb-19 08:15 217 2 gusting 4 -0.0
2017-Feb-19 08:05 216 2 gusting 5 -0.6
2017-Feb-19 07:55 218 2 gusting 4 -0.6
2017-Feb-19 07:45 216 2 gusting 4 -0.6
2017-Feb-19 07:35 215 2 gusting 4 -0.6
2017-Feb-19 07:25 215 2 gusting 4 -0.6
2017-Feb-19 07:15 213 3 gusting 4 -0.6
2017-Feb-19 07:05 218 3 gusting 5 -0.6
2017-Feb-19 06:55 217 3 gusting 6 -0.6
2017-Feb-19 06:45 215 3 gusting 4 -0.6
2017-Feb-19 06:35 215 3 gusting 4 -0.6
2017-Feb-19 06:25 215 3 gusting 5 -1.1
2017-Feb-19 06:15 214 2 gusting 4 -1.1
2017-Feb-19 06:05 213 2 gusting 4 -1.1
2017-Feb-19 05:55 215 2 gusting 4 -1.1
2017-Feb-19 05:45 215 2 gusting 4 -1.1
2017-Feb-19 05:35 212 3 gusting 5 -1.1
2017-Feb-19 05:25 213 2 gusting 4 -1.1
2017-Feb-19 05:15 215 2 gusting 5 -1.1
2017-Feb-19 05:05 212 2 gusting 4 -1.1
2017-Feb-19 04:55 211 2 gusting 4 -1.1
2017-Feb-19 04:45 213 3 gusting 5 -1.1
2017-Feb-19 04:35 213 3 gusting 4 -1.1
2017-Feb-19 04:25 212 3 gusting 5 -1.1
2017-Feb-19 04:15 210 2 gusting 4 -1.1
2017-Feb-19 04:05 210 2 gusting 4 -1.1
2017-Feb-19 03:55 209 3 gusting 5 -1.1
2017-Feb-19 03:45 208 2 gusting 5 -1.1
2017-Feb-19 03:35 208 2 gusting 4 -1.1
2017-Feb-19 03:25 205 3 gusting 5 -1.1
2017-Feb-19 03:15 206 2 gusting 4 -1.7
2017-Feb-19 03:05 206 2 gusting 5 -1.7
2017-Feb-19 02:55 201 2 gusting 5 -1.7
2017-Feb-19 02:45 203 2 gusting 4 -1.7
2017-Feb-19 02:35 202 2 gusting 4 -1.7
2017-Feb-19 02:25 206 2 gusting 4 -2.2
2017-Feb-19 02:15 203 2 gusting 4 -2.2
2017-Feb-19 02:05 189 2 gusting 4 -2.2
2017-Feb-19 01:55 183 2 gusting 5 -2.2
2017-Feb-19 01:45 169 2 gusting 5 -2.2
2017-Feb-19 01:35 178 2 gusting 5 -2.2
2017-Feb-19 01:25 194 2 gusting 5 -2.2
2017-Feb-19 01:15 177 1 gusting 3 -2.2
2017-Feb-19 01:05 165 1 gusting 3 -2.2
2017-Feb-19 00:55 178 2 gusting 6 -2.2
2017-Feb-19 00:45 174 1 gusting 3 -2.2
2017-Feb-19 00:35 174 1 gusting 3 -2.2
2017-Feb-19 00:25 178 1 gusting 3 -2.2
2017-Feb-19 00:15 170 0 gusting 3 -2.2
2017-Feb-19 00:05 176 1 gusting 2 -2.2
2017-Feb-18 23:55 182 1 gusting 5 -2.8
2017-Feb-18 23:45 187 0 gusting 2 -2.8
2017-Feb-18 23:35 183 0 gusting 1 -2.8
2017-Feb-18 23:25 191 0 gusting 2 -2.8
2017-Feb-18 23:15 213 0 gusting 1 -2.8
2017-Feb-18 23:05 115 -2.8
2017-Feb-18 22:55 197 -2.8
2017-Feb-18 22:45 204 0 gusting 1 -3.3
2017-Feb-18 22:35 207 -3.3
2017-Feb-18 22:25 203 0 gusting 1 -3.3
2017-Feb-18 22:15 203 -3.3
2017-Feb-18 22:05 204 0 gusting 0 -3.3
2017-Feb-18 21:55 218 0 gusting 2 -3.3
2017-Feb-18 21:45 223 1 gusting 2 -3.3
2017-Feb-18 21:35 215 0 gusting 1 -3.3
2017-Feb-18 21:25 214 0 gusting 2 -3.3
2017-Feb-18 21:15 211 1 gusting 2 -3.3
2017-Feb-18 21:05 217 0 gusting 1 -3.9
2017-Feb-18 20:55 209 0 gusting 1 -3.9
2017-Feb-18 20:45 215 0 gusting 1 -3.9
2017-Feb-18 20:35 211 0 gusting 1 -3.9
2017-Feb-18 20:25 212 0 gusting 1 -3.9
2017-Feb-18 20:15 221 0 gusting 1 -3.9
2017-Feb-18 20:05 212 0 gusting 1 -3.9
2017-Feb-18 19:55 206 0 gusting 1 -3.9
2017-Feb-18 19:45 218 0 gusting 1 -3.9
2017-Feb-18 19:35 209 0 gusting 0 -3.9
2017-Feb-18 19:25 220 0 gusting 1 -3.9
2017-Feb-18 19:15 207 0 gusting 1 -3.9
2017-Feb-18 19:05 202 -3.9
2017-Feb-18 18:55 213 0 gusting 1 -3.9
2017-Feb-18 18:45 211 0 gusting 1 -3.9
2017-Feb-18 18:35 203 0 gusting 1 -3.3
2017-Feb-18 18:25 230 -3.3
2017-Feb-18 18:15 225 -3.3
2017-Feb-18 18:05 225 -3.3
2017-Feb-18 17:55 225 -3.3
2017-Feb-18 17:45 247 -3.3
2017-Feb-18 17:35 225 -3.3
2017-Feb-18 17:25 225 -3.3
2017-Feb-18 17:15 225 0 gusting 1 -3.3
2017-Feb-18 17:05 225 0 gusting 0 -2.8
2017-Feb-18 16:55 225 -2.8
2017-Feb-18 16:45 225 0 gusting 0 -2.8
2017-Feb-18 16:35 225 -2.8
2017-Feb-18 16:25 225 -2.8
2017-Feb-18 16:15 225 -2.8
2017-Feb-18 16:05 228 -2.8
2017-Feb-18 15:55 193 -2.8
2017-Feb-18 15:45 165 -2.8
2017-Feb-18 15:35 210 0 gusting 1 -2.8
2017-Feb-18 15:25 210 0 gusting 1 -1.7
2017-Feb-18 15:15 233 -1.7
2017-Feb-18 15:05 033 -1.1
2017-Feb-18 14:55 352 -1.1
2017-Feb-18 14:45 269 0 gusting 4 -0.6
2017-Feb-18 14:35 297 1 gusting 4 -0.6
2017-Feb-18 14:25 311 1 gusting 6 -0.6
2017-Feb-18 14:15 321 1 gusting 6 -0.6
2017-Feb-18 14:05 317 1 gusting 6 -0.0
2017-Feb-18 13:55 329 2 gusting 10 -0.0
2017-Feb-18 13:45 300 2 gusting 8 -0.0
2017-Feb-18 13:35 293 4 gusting 8 -0.0
2017-Feb-18 13:25 301 3 gusting 9 0.6
2017-Feb-18 13:15 307 4 gusting 9 0.6
2017-Feb-18 13:05 327 4 gusting 11 1.1
2017-Feb-18 12:55 320 6 gusting 18 1.1
2017-Feb-18 12:45 291 4 gusting 9 1.1
2017-Feb-18 12:35 254 4 gusting 10 0.6
2017-Feb-18 12:25 245 3 gusting 12 0.6
2017-Feb-18 12:15 232 2 gusting 6 0.6
2017-Feb-18 12:05 265 3 gusting 12 0.6
2017-Feb-18 11:55 263 3 gusting 13 0.6
2017-Feb-18 11:45 254 3 gusting 13 0.6
2017-Feb-18 11:35 250 3 gusting 12 -0.0
2017-Feb-18 11:25 238 3 gusting 9 -0.0
2017-Feb-18 11:15 238 3 gusting 7 -0.0
2017-Feb-18 11:05 236 2 gusting 5 -0.0
2017-Feb-18 10:55 236 3 gusting 7 -0.6
2017-Feb-18 10:45 235 3 gusting 6 -0.6
2017-Feb-18 10:35 235 4 gusting 7 -0.6
2017-Feb-18 10:25 235 4 gusting 8 -0.6
2017-Feb-18 10:15 237 5 gusting 12 -0.6
2017-Feb-18 10:05 235 4 gusting 11 -0.6
2017-Feb-18 09:45 234 3 gusting 7 -0.6
2017-Feb-18 09:35 233 3 gusting 6 -1.1
2017-Feb-18 09:25 237 3 gusting 6 -1.1
2017-Feb-18 09:15 229 2 gusting 6 -1.1
2017-Feb-18 09:05 237 2 gusting 5 -1.1
2017-Feb-18 08:55 235 3 gusting 7 -1.7
2017-Feb-18 08:45 233 4 gusting 7 -1.7
2017-Feb-18 08:35 234 3 gusting 8 -2.2
2017-Feb-18 08:25 228 3 gusting 6 -2.8
2017-Feb-18 08:15 232 2 gusting 5 -2.8
2017-Feb-18 08:05 233 2 gusting 6 -2.8
2017-Feb-18 07:55 232 3 gusting 6 -3.3
2017-Feb-18 07:45 235 2 gusting 5 -3.3
2017-Feb-18 07:35 238 3 gusting 6 -3.3
2017-Feb-18 07:25 235 3 gusting 6 -3.9
2017-Feb-18 07:15 236 2 gusting 6 -3.9
2017-Feb-18 07:05 235 3 gusting 6 -3.9
2017-Feb-18 06:55 235 3 gusting 6 -4.4
2017-Feb-18 06:45 235 3 gusting 5 -4.4
2017-Feb-18 06:35 236 3 gusting 6 -5.0
2017-Feb-18 06:25 238 2 gusting 6 -5.0
2017-Feb-18 06:15 236 2 gusting 6 -5.0
2017-Feb-18 06:05 235 3 gusting 6 -5.0
2017-Feb-18 05:55 237 2 gusting 5 -5.0
2017-Feb-18 05:45 235 2 gusting 5 -5.0
2017-Feb-18 05:35 237 1 gusting 4 -5.0
2017-Feb-18 05:25 234 1 gusting 3 -5.0
2017-Feb-18 05:15 235 1 gusting 3 -5.0
2017-Feb-18 05:05 233 1 gusting 5 -5.0
2017-Feb-18 04:55 235 2 gusting 5 -5.0
2017-Feb-18 04:45 234 2 gusting 6 -5.0
2017-Feb-18 04:35 242 2 gusting 6 -5.0
2017-Feb-18 04:25 229 1 gusting 4 -5.0
2017-Feb-18 04:15 227 2 gusting 4 -5.0
2017-Feb-18 04:05 222 1 gusting 4 -5.6
2017-Feb-18 03:55 220 1 gusting 3 -5.6
2017-Feb-18 03:45 226 1 gusting 4 -5.6
2017-Feb-18 03:35 234 2 gusting 4 -5.6
2017-Feb-18 03:25 236 1 gusting 3 -5.6
2017-Feb-18 03:15 233 1 gusting 3 -5.0
2017-Feb-18 03:05 219 0 gusting 3 -5.0
2017-Feb-18 02:55 232 0 gusting 3 -5.0
2017-Feb-18 02:45 221 0 gusting 1 -5.0
2017-Feb-18 02:35 225 1 gusting 2 -5.0
2017-Feb-18 02:25 223 0 gusting 1 -5.0
2017-Feb-18 02:15 225 0 gusting 2 -5.0
2017-Feb-18 02:05 234 -5.0
2017-Feb-18 01:55 225 0 gusting 2 -5.6
2017-Feb-18 01:45 233 0 gusting 2 -5.6
2017-Feb-18 01:35 227 1 gusting 2 -5.0
2017-Feb-18 01:25 230 0 gusting 2 -5.0
2017-Feb-18 01:15 239 0 gusting 3 -5.0
2017-Feb-18 01:05 230 0 gusting 2 -4.4
2017-Feb-18 00:55 219 0 gusting 1 -4.4
2017-Feb-18 00:45 227 0 gusting 2 -3.9
2017-Feb-18 00:35 241 0 gusting 4 -3.3
2017-Feb-18 00:25 245 1 gusting 4 -3.3
2017-Feb-18 00:15 248 1 gusting 5 -3.3
2017-Feb-18 00:05 252 2 gusting 6 -3.3
2017-Feb-17 23:55 234 1 gusting 6 -3.3
2017-Feb-17 23:45 237 1 gusting 3 -3.3
2017-Feb-17 23:35 231 1 gusting 3 -3.3
2017-Feb-17 23:25 235 1 gusting 4 -3.3
2017-Feb-17 23:15 233 1 gusting 4 -3.3
2017-Feb-17 23:05 233 2 gusting 4 -2.8